Flag for Poland

Past Weather in Wroclaw, Poland — Yesterday and Last 2 Weeks

Now
86 °F

Passing clouds.


Feels Like: 86 °F
Forecast: 75 / 64 °F
Wind: 7 mph from Southeast

Location: Wroclaw Ii
Current Time: Aug 14, 2020 at 2:04:38 pm
Latest Report: Aug 14, 2020 at 1:00 pm
Visibility: N/A
Pressure29.92 "Hg
Humidity: 43%
Dew Point: 61 °F
Location of WroclawLocation

Past Weather in Wroclaw — Graph

°F

Wroclaw Temperature Yesterday

Maximum temperature yesterday: 88 °F (at 4:30 pm)
Minimum temperature yesterday: 59 °F (at 6:30 am)
Average temperature yesterday: 73 °F

High & Low Weather Summary for the Past Weeks

 TemperatureHumidityPressure
High90 °F (Aug 8, 3:00 pm)100% (Aug 1, 5:30 am)30.21 "Hg (Aug 1, 5:30 am)
Low50 °F (Aug 1, 5:30 am)30% (Jul 30, 4:30 pm)29.77 "Hg (Aug 3, 4:30 pm)
Average70 °F67%30.04 "Hg
* Reported Jul 30 1:00 pm — Aug 14 1:00 pm, Wroclaw. Weather by CustomWeather, © 2020

Note: Actual official high and low records may vary slightly from our data, if they occured in-between our weather recording intervals... More about our weather records

Wroclaw Weather History for the Previous 24 Hours

Scroll right to see more
 ConditionsComfort  
Time TempWeatherWind HumidityBarometerVisibility
1:00 pm
Fri, Aug 14
86 °FPassing clouds.7 mph43%29.92 "HgN/A
12:30 pm84 °FPassing clouds.7 mph45%29.92 "HgN/A
12:00 pm82 °FPassing clouds.8 mph55%29.92 "HgN/A
11:30 am81 °FPassing clouds.7 mph58%29.92 "HgN/A
11:00 am79 °FPassing clouds.7 mph58%29.92 "HgN/A
10:30 am77 °FSunny.6 mph61%29.92 "Hg10 mi
10:00 am77 °FPassing clouds.7 mph61%29.92 "HgN/A
9:30 am73 °FPassing clouds.5 mph69%29.92 "HgN/A
9:00 am72 °FSunny.6 mph73%29.92 "Hg10 mi
8:30 am68 °FSunny.5 mph83%29.92 "Hg10 mi
8:00 am66 °FSunny.5 mph83%29.92 "Hg10 mi
7:30 am66 °FSunny.3 mph83%29.92 "Hg10 mi
7:00 am64 °FSunny.5 mph88%29.92 "Hg10 mi
6:30 am64 °FPassing clouds.3 mph83%29.92 "HgN/A
6:00 am61 °FSunny.2 mph88%29.92 "Hg10 mi
5:30 am61 °FFog.3 mph94%29.92 "HgN/A
5:00 am61 °FClear.1 mph94%29.92 "Hg10 mi
4:30 am61 °FClear.1 mph88%29.92 "Hg10 mi
4:00 am61 °FClear.3 mph88%29.92 "Hg10 mi
3:30 am63 °FClear.1 mph88%29.92 "Hg10 mi
3:00 am63 °FClear.2 mph88%29.92 "Hg10 mi
2:30 am63 °FClear.2 mph94%29.95 "Hg10 mi
2:00 am64 °FClear.1 mph88%29.95 "Hg10 mi
1:30 am64 °FClear.1 mph88%29.95 "Hg10 mi
1:00 am66 °FPassing clouds.3 mph83%29.95 "HgN/A
12:30 am66 °FClear.1 mph83%29.95 "Hg10 mi
12:00 am66 °FClear.2 mph83%29.95 "Hg10 mi
11:30 pm
Thu, Aug 13
68 °FClear.1 mph78%29.95 "Hg10 mi
11:00 pm68 °FClear.1 mph78%29.95 "Hg10 mi
10:30 pm68 °FClear.1 mph83%29.95 "Hg10 mi
10:00 pm72 °FClear.1 mph69%29.95 "Hg10 mi
9:30 pm70 °FClear.2 mph78%29.95 "Hg10 mi
9:00 pm73 °FClear.1 mph69%29.95 "Hg10 mi
8:30 pm77 °FClear.2 mph57%29.95 "Hg10 mi
8:00 pm77 °FPassing clouds.3 mph57%29.95 "HgN/A
7:30 pm81 °FPassing clouds.3 mph48%29.95 "HgN/A
7:00 pm82 °FSunny.5 mph42%29.92 "Hg10 mi
6:30 pm84 °FSunny.5 mph37%29.92 "Hg10 mi
6:00 pm86 °FPassing clouds.6 mph40%29.92 "HgN/A
5:30 pm86 °FPassing clouds.7 mph38%29.92 "HgN/A
5:00 pm86 °FPassing clouds.3 mph33%29.92 "HgN/A
4:30 pm88 °FPassing clouds.5 mph31%29.95 "HgN/A
4:00 pm86 °FSunny.3 mph35%29.95 "Hg10 mi
3:30 pm86 °FSunny.2 mph35%29.95 "Hg10 mi
2:30 pm86 °FPassing clouds.6 mph40%29.95 "HgN/A
2:00 pm84 °FSunny.8 mph43%29.98 "Hg10 mi
Weather by CustomWeather, © 2020

See weather overview